Simultaneous Nadir Overpasses (SNOs) Predictions

Prediction of SNOs between AQUA and GOES-15 Satellite Orbit:

Table of predicted SNOs for the next 14.0 days since TLE Epoch: 6/18/2016
Index Date Time (AQUA) AQUA Lat,Lon GOES-15 Lat,Lon Distance(km) Time Diff (sec)
1 06/18/2016 10:44:05 0.27,-137.12 -0.06,-135.43 191.46 80
2 06/20/2016 10:31:52 -0.34,-134.16 -0.06,-135.46 148.17 80
3 06/20/2016 22:53:16 -0.77,-139.35 0.07,-135.44 444.53 80
4 06/22/2016 10:19:39 -0.96,-131.19 -0.06,-135.48 487.15 80
5 06/22/2016 22:41:03 -0.15,-136.39 0.07,-135.46 105.71 80
6 06/24/2016 22:28:50 0.47,-133.42 0.07,-135.48 232.63 80
7 06/25/2016 10:50:06 0.56,-138.59 -0.09,-135.50 350.92 80
8 06/27/2016 10:37:53 -0.08,-135.63 -0.08,-135.51 13.46 80
9 06/29/2016 10:25:40 -0.71,-132.67 -0.08,-135.51 323.63 80
10 06/29/2016 22:47:04 -0.39,-137.86 0.10,-135.49 269.89 80
11 07/01/2016 22:34:50 0.20,-134.89 0.10,-135.48 66.20 80




NCC Satellite Simultaneous Nadir Overpasses (SNOs) Prediction Service
